HNT2025 KIAD-KMDT

Flight info

Callsign HNT2025
Flight time 0h 26m
Altitude 17000
Route MRB V501 HGR V377 HAR
Aircraft L101/H-SDFGHIRWXY/S

Departure

Time 2026-05-08 00:29
Airport Washington Dulles International Airport (KIAD)

Arrival

Time 2026-05-08 00:55
Airport Harrisburg International Airport (KMDT)
Time Latitude Longitude Altitude Speed Heading
2026-05-08 00:06 38.94502 -77.45340 279 ft 0 kts
2026-05-08 00:19 38.94496 -77.45341 300 ft 4 kts
2026-05-08 00:19 38.94470 -77.45346 298 ft 4 kts
2026-05-08 00:19 38.94444 -77.45345 299 ft 4 kts 336°
2026-05-08 00:19 38.94424 -77.45326 299 ft 4 kts 296°
2026-05-08 00:20 38.94419 -77.45303 300 ft 1 kts 271°
2026-05-08 00:20 38.94419 -77.45300 299 ft 0 kts 271°
2026-05-08 00:22 38.94419 -77.45299 299 ft 0 kts 271°
2026-05-08 00:23 38.94419 -77.45300 297 ft 0 kts 271°
2026-05-08 00:23 38.94419 -77.45315 301 ft 4 kts 270°
2026-05-08 00:24 38.94420 -77.45366 300 ft 8 kts 270°
2026-05-08 00:24 38.94420 -77.45450 300 ft 11 kts 269°
2026-05-08 00:24 38.94411 -77.45561 300 ft 13 kts 244°
2026-05-08 00:24 38.94326 -77.45610 300 ft 15 kts 182°
2026-05-08 00:25 38.94221 -77.45611 302 ft 16 kts 182°
2026-05-08 00:25 38.94105 -77.45615 301 ft 18 kts 181°
2026-05-08 00:25 38.93992 -77.45617 301 ft 6 kts 180°
2026-05-08 00:25 38.93936 -77.45617 301 ft 10 kts 180°
2026-05-08 00:26 38.93857 -77.45616 300 ft 13 kts 179°
2026-05-08 00:26 38.93755 -77.45613 300 ft 16 kts 173°
2026-05-08 00:26 38.93661 -77.45541 300 ft 17 kts 133°
2026-05-08 00:26 38.93559 -77.45512 301 ft 15 kts 193°
2026-05-08 00:27 38.93463 -77.45555 299 ft 11 kts 200°
2026-05-08 00:27 38.93457 -77.45558 299 ft 0 kts 200°
2026-05-08 00:27 38.93452 -77.45560 299 ft 2 kts 200°
2026-05-08 00:27 38.93425 -77.45575 300 ft 6 kts 203°
2026-05-08 00:28 38.93387 -77.45620 301 ft 8 kts 248°
2026-05-08 00:28 38.93402 -77.45728 301 ft 33 kts 291°
2026-05-08 00:28 38.93583 -77.46343 306 ft 114 kts 290°
2026-05-08 00:28 38.93928 -77.47560 527 ft 168 kts 289°
2026-05-08 00:29 38.94363 -77.49046 1150 ft 184 kts 288°
2026-05-08 00:29 38.94815 -77.50636 1710 ft 195 kts 287°
2026-05-08 00:29 38.95286 -77.52441 2149 ft 232 kts 287°
2026-05-08 00:29 38.96037 -77.54288 2983 ft 241 kts 309°
2026-05-08 00:30 38.97398 -77.55617 3853 ft 249 kts 331°
2026-05-08 00:30 38.99026 -77.56373 4981 ft 251 kts 342°
2026-05-08 00:30 39.00691 -77.57161 5547 ft 256 kts 335°
2026-05-08 00:30 39.02300 -77.58150 5850 ft 256 kts 333°
2026-05-08 00:31 39.03935 -77.59051 6013 ft 255 kts 338°
2026-05-08 00:31 39.05588 -77.59941 5823 ft 259 kts 330°
2026-05-08 00:31 39.07116 -77.61075 5984 ft 251 kts 328°
2026-05-08 00:31 39.08619 -77.62233 6546 ft 254 kts 328°
2026-05-08 00:32 39.10168 -77.63361 7222 ft 256 kts 330°
2026-05-08 00:32 39.11757 -77.64447 7850 ft 261 kts 329°
2026-05-08 00:32 39.13370 -77.65570 8315 ft 264 kts 328°
2026-05-08 00:32 39.14942 -77.66749 8570 ft 266 kts 326°
2026-05-08 00:33 39.16468 -77.68122 8426 ft 268 kts 317°
2026-05-08 00:33 39.17797 -77.69774 8085 ft 264 kts 313°
2026-05-08 00:33 39.19071 -77.71470 7923 ft 259 kts 311°
2026-05-08 00:33 39.20415 -77.73040 8334 ft 265 kts 319°
2026-05-08 00:34 39.21940 -77.74401 8613 ft 268 kts 323°
2026-05-08 00:34 39.23499 -77.75720 8822 ft 269 kts 321°
2026-05-08 00:34 39.24992 -77.77224 8895 ft 273 kts 321°
2026-05-08 00:34 39.26611 -77.78485 9276 ft 271 kts 328°
2026-05-08 00:35 39.27742 -77.79224 9488 ft 270 kts 330°
2026-05-08 00:35 39.29453 -77.80275 9626 ft 274 kts 331°
2026-05-08 00:35 39.31214 -77.81260 9547 ft 285 kts 335°
2026-05-08 00:35 39.33134 -77.82068 9509 ft 294 kts 341°
2026-05-08 00:36 39.35175 -77.82446 9701 ft 297 kts 353°
2026-05-08 00:36 39.37216 -77.82481 9969 ft 293 kts 355°
2026-05-08 00:36 39.39277 -77.82392 10025 ft 299 kts 358°
2026-05-08 00:36 39.41368 -77.82342 10051 ft 301 kts 356°
2026-05-08 00:37 39.43468 -77.82305 10176 ft 301 kts 356°
2026-05-08 00:37 39.45550 -77.82270 10339 ft 299 kts 356°
2026-05-08 00:37 39.47652 -77.82246 10352 ft 302 kts 355°
2026-05-08 00:38 39.52138 -77.82083 10711 ft 339 kts 356°
2026-05-08 00:38 39.54512 -77.82146 10726 ft 343 kts 352°
2026-05-08 00:38 39.56860 -77.82652 10239 ft 340 kts 342°
2026-05-08 00:38 39.59065 -77.83452 10765 ft 323 kts 338°
2026-05-08 00:39 39.61216 -77.84513 11192 ft 337 kts 334°
2026-05-08 00:39 39.63436 -77.85540 11194 ft 340 kts 337°
2026-05-08 00:39 39.65676 -77.86587 10878 ft 341 kts 333°
2026-05-08 00:39 39.67821 -77.87818 10333 ft 335 kts 333°
2026-05-08 00:40 39.70039 -77.88781 9791 ft 339 kts 345°
2026-05-08 00:40 39.72389 -77.89143 8920 ft 341 kts 355°
2026-05-08 00:40 39.74758 -77.89070 8269 ft 336 kts
2026-05-08 00:40 39.77024 -77.88394 7512 ft 337 kts 15°
2026-05-08 00:41 39.79266 -77.87416 6721 ft 336 kts 16°
2026-05-08 00:41 39.81453 -77.86478 6291 ft 326 kts 14°
2026-05-08 00:41 39.83554 -77.85597 6595 ft 324 kts 20°
2026-05-08 00:41 39.85461 -77.83875 6590 ft 336 kts 46°
2026-05-08 00:42 39.86654 -77.81287 6321 ft 342 kts 68°
2026-05-08 00:42 39.87205 -77.78273 6351 ft 339 kts 78°
2026-05-08 00:42 39.87636 -77.75230 6716 ft 342 kts 79°
2026-05-08 00:42 39.88028 -77.72206 7125 ft 346 kts 79°
2026-05-08 00:43 39.88535 -77.69124 7305 ft 347 kts 73°
2026-05-08 00:43 39.89345 -77.66193 7662 ft 345 kts 63°
2026-05-08 00:43 39.90454 -77.63399 8154 ft 347 kts 60°
2026-05-08 00:43 39.91623 -77.60635 8534 ft 351 kts 58°
2026-05-08 00:44 39.92866 -77.57886 8722 ft 353 kts 57°
2026-05-08 00:44 39.94153 -77.55146 8471 ft 355 kts 56°
2026-05-08 00:44 39.95488 -77.52443 7846 ft 353 kts 54°
2026-05-08 00:44 39.96884 -77.49835 7197 ft 347 kts 52°
2026-05-08 00:45 39.98297 -77.47309 6492 ft 344 kts 51°
2026-05-08 00:45 39.99715 -77.44836 5916 ft 336 kts 50°
2026-05-08 00:45 40.01180 -77.42477 5354 ft 332 kts 46°
2026-05-08 00:45 40.02728 -77.40307 4883 ft 322 kts 43°
2026-05-08 00:46 40.04224 -77.38314 4772 ft 288 kts 42°
2026-05-08 00:46 40.05642 -77.36584 4828 ft 276 kts 39°
2026-05-08 00:46 40.07071 -77.34931 4874 ft 275 kts 38°
2026-05-08 00:46 40.08510 -77.33327 5167 ft 274 kts 37°
2026-05-08 00:47 40.09961 -77.31767 5057 ft 273 kts 36°
2026-05-08 00:47 40.11461 -77.30202 5031 ft 274 kts 35°
2026-05-08 00:47 40.12974 -77.28700 5102 ft 272 kts 33°
2026-05-08 00:47 40.14494 -77.27203 5244 ft 275 kts 34°
2026-05-08 00:48 40.15993 -77.25665 5331 ft 274 kts 35°
2026-05-08 00:48 40.17461 -77.24055 5576 ft 276 kts 39°
2026-05-08 00:48 40.18835 -77.22336 5916 ft 278 kts 42°
2026-05-08 00:48 40.20220 -77.20543 5931 ft 280 kts 42°
2026-05-08 00:49 40.21602 -77.18743 5969 ft 280 kts 42°
2026-05-08 00:49 40.22979 -77.16929 6076 ft 281 kts 43°
2026-05-08 00:49 40.24341 -77.15101 6196 ft 282 kts 43°
2026-05-08 00:49 40.25707 -77.13247 6152 ft 280 kts 43°
2026-05-08 00:50 40.26913 -77.11392 5757 ft 256 kts 53°
2026-05-08 00:50 40.27618 -77.09368 5468 ft 236 kts 73°
2026-05-08 00:50 40.27851 -77.07299 5001 ft 227 kts 83°
2026-05-08 00:50 40.27945 -77.05241 4446 ft 225 kts 88°
2026-05-08 00:51 40.27902 -77.03213 3964 ft 220 kts 93°
2026-05-08 00:51 40.27721 -77.01248 3506 ft 214 kts 98°
2026-05-08 00:51 40.27433 -76.99392 3066 ft 200 kts 107°
2026-05-08 00:51 40.26811 -76.97869 3139 ft 191 kts 130°
2026-05-08 00:52 40.25893 -76.96581 3175 ft 200 kts 130°
2026-05-08 00:52 40.25259 -76.94978 2652 ft 197 kts 110°
2026-05-08 00:52 40.24856 -76.93294 2143 ft 192 kts 107°
2026-05-08 00:52 40.24468 -76.91657 1711 ft 184 kts 107°
2026-05-08 00:53 40.24122 -76.90094 1418 ft 173 kts 104°
2026-05-08 00:53 40.23830 -76.88612 1355 ft 174 kts 104°
2026-05-08 00:53 40.23449 -76.86992 1192 ft 186 kts 108°
2026-05-08 00:53 40.23021 -76.85443 1107 ft 178 kts 111°
2026-05-08 00:54 40.22456 -76.83972 871 ft 180 kts 120°
2026-05-08 00:54 40.21822 -76.82572 725 ft 176 kts 120°
2026-05-08 00:54 40.21237 -76.81184 599 ft 175 kts 117°
2026-05-08 00:54 40.20695 -76.79762 507 ft 174 kts 117°
2026-05-08 00:55 40.20150 -76.78395 417 ft 167 kts 117°
2026-05-08 00:55 40.19659 -76.77123 331 ft 145 kts 117°
2026-05-08 00:55 40.19233 -76.76067 315 ft 110 kts 122°
2026-05-08 00:55 40.18987 -76.75421 315 ft 47 kts 114°
2026-05-08 00:56 40.18863 -76.75070 316 ft 40 kts 117°
2026-05-08 00:56 40.18755 -76.74790 320 ft 19 kts 117°
2026-05-08 00:56 40.18778 -76.74683 319 ft 13 kts 15°
2026-05-08 00:56 40.18844 -76.74734 316 ft 13 kts 307°
2026-05-08 00:57 40.18896 -76.74845 314 ft 17 kts 299°
2026-05-08 00:57 40.18947 -76.74982 316 ft 17 kts 292°
2026-05-08 00:57 40.19002 -76.75127 315 ft 18 kts 298°
2026-05-08 00:57 40.19058 -76.75273 317 ft 18 kts 294°
2026-05-08 00:58 40.19116 -76.75426 316 ft 20 kts 295°
2026-05-08 00:58 40.19219 -76.75491 315 ft 17 kts 12°
2026-05-08 00:58 40.19339 -76.75482 315 ft 18 kts
2026-05-08 00:58 40.19417 -76.75476 316 ft 6 kts
2026-05-08 00:59 40.19419 -76.75475 316 ft 0 kts